#timestamp,LO_Frequency,Hit,StdDev 
1607767215.7,286046997.2,N
1607767235.5,286046997.2,N
1607767255.3,286046996.6,N
1607767275.2,286046997.4,N
1607767295.0,286046997.7,N
1607767295.9,286046997.7,N
1607767315.8,286046997.7,N
1607767335.6,286046997.1,N
1607767355.4,286046999.6,N
1607767375.3,286046999.5,N
1607767395.1,286046999.4,N
1607767396.0,286046999.4,N
1607767415.8,286046997.1,N
1607767435.7,286046998.8,N
1607767455.5,286046999.2,N
1607767475.3,286046998.2,N
1607767495.2,286046997.1,N
1607767515.0,286046996.5,Y
1607767515.9,286046996.5,P
1607767535.8,286046998.5,N
1607767555.6,286046998.9,N
1607767575.4,286046998.5,N
1607767595.3,286047000.4,N
1607767615.1,286047000.5,N
1607767635.8,286046999.7,N
1607767655.7,286047002.1,N
1607767675.5,286047002.6,N
1607767695.4,286047001.3,N
1607767715.2,286047000.4,N
1607767735.0,286047000.2,N
1607767735.9,286047000.2,N
1607767755.8,286047001.9,N
1607767775.6,286047002.1,N
1607767795.5,286047002.0,N
1607767815.3,286047004.1,N
1607767835.1,286047004.4,N
1607767855.9,286047002.8,N
1607767875.7,286046999.9,N
1607767895.5,286047000.1,N
1607767915.4,286047001.1,N
1607767935.2,286046999.0,N
1607767955.0,286047000.7,N
1607767956.0,286047000.7,N
1607767975.8,286047000.2,N
1607767995.6,286047000.5,N
1607768015.5,286047000.7,N
1607768035.3,286047000.3,N
1607768055.1,286046999.9,N
1607768075.9,286047001.6,N
1607768095.7,286047004.4,Y
1607768115.6,286047001.9,P
1607768135.4,286047002.1,P
1607768155.2,286047002.3,P
1607768175.1,286047002.2,Y
1607768176.0,286047002.2,P
1607768195.8,286046998.2,P
1607768215.6,286046998.5,N
1607768235.5,286047000.9,N
1607768255.3,286047000.8,N
1607768275.2,286047000.4,N
1607768295.9,286046998.5,N
1607768315.7,286046998.3,N
1607768335.6,286046998.2,N
1607768355.4,286046998.8,N
1607768375.2,286047001.0,N
1607768395.1,286046999.8,N
1607768396.0,286046999.8,N
1607768415.8,286046999.9,N
1607768435.7,286047002.7,N
1607768455.5,286047002.2,N
1607768475.3,286047004.2,N
1607768495.2,286047002.4,N
1607768515.0,286046999.8,N
1607768515.9,286046999.8,N
1607768535.7,286047001.4,N
1607768555.6,286047004.1,N
1607768575.4,286047003.2,N
1607768595.3,286047003.0,N
1607768615.1,286047003.0,N
1607768616.0,286047003.0,N
1607768635.8,286047003.6,N
1607768655.7,286047001.3,N
1607768675.5,286047001.6,N
1607768695.3,286047002.0,N
1607768715.2,286047002.5,N
1607768735.0,286046999.7,N
1607768735.9,286046999.7,N
1607768755.8,286047001.7,N
1607768775.6,286047004.2,N
1607768795.4,286047003.6,N
1607768815.3,286047011.9,Y
1607768835.1,286047004.1,P
1607768855.8,286047003.2,N
1607768875.7,286047004.1,P
1607768895.5,286047001.6,N
1607768915.4,286047002.2,N
1607768935.2,286047003.9,Y
1607768955.0,286046999.7,P
1607768955.9,286046999.7,N
1607768975.8,286047000.2,N
1607768995.6,286047000.3,N
1607769015.4,286047000.0,N
1607769035.3,286046999.8,N
1607769055.1,286047000.2,N
1607769075.9,286047000.7,N
1607769095.7,286047002.3,N
1607769115.5,286046998.1,N
1607769135.4,286046998.5,N
1607769155.2,286047000.9,N
1607769175.0,286047000.9,N
1607769175.9,286047000.9,N
1607769195.8,286046999.8,N
1607769215.6,286047002.3,N
1607769235.5,286047002.5,N
1607769255.3,286047002.3,N
1607769275.1,286047002.5,N
1607769295.9,286047002.3,N
1607769315.7,286047003.9,N
1607769335.5,286047001.6,N
1607769355.4,286047003.4,N
1607769375.2,286047004.3,N
1607769395.1,286047002.4,N
1607769396.0,286047002.4,N
1607769415.8,286047002.2,N
1607769435.6,286047002.2,N
1607769455.5,286047002.3,N
1607769475.3,286046999.8,N
1607769495.1,286047002.8,N
1607769515.9,286047002.1,N
1607769535.7,286046999.7,N
1607769555.6,286047002.7,N
1607769575.4,286047001.3,N
1607769595.2,286047000.2,N
1607769615.1,286047000.3,N
1607769616.0,286047000.3,N
1607769635.8,286047000.0,N
1607769655.6,286047000.6,N
1607769675.5,286046999.8,N
1607769695.3,286047000.3,N
1607769715.2,286047000.8,N
1607769735.9,286047002.1,N
1607769755.7,286047002.1,N
1607769775.6,286047002.0,N
1607769795.4,286047002.6,N
1607769815.3,286047001.9,N
1607769835.1,286047001.8,N
1607769836.0,286047001.8,N
1607769855.8,286047002.3,N
1607769875.7,286047002.2,N
1607769895.5,286047000.3,N
1607769915.3,286047002.8,N
1607769935.2,286046999.8,N
1607769955.0,286047002.8,N
1607769955.9,286047002.8,N
1607769975.8,286047000.5,N
1607769995.6,286047000.6,N
1607770015.4,286047001.0,N
1607770035.3,286047002.4,N
1607770055.1,286047002.7,N
1607770075.9,286047002.5,N
1607770095.7,286047000.1,N
1607770115.5,286047000.4,N
1607770135.4,286046999.8,N
1607770155.2,286046999.8,N
1607770175.0,286047000.2,N
1607770175.9,286047000.2,N
1607770195.8,286047000.1,N
1607770215.6,286047002.4,N
1607770235.5,286047001.5,N
1607770255.3,286047001.8,N
1607770275.1,286047001.6,N
1607770295.9,286047004.0,Y
1607770315.7,286047002.7,P
1607770335.5,286047002.3,P
1607770355.4,286047002.2,P
1607770375.2,286047001.8,Y
1607770395.1,286047000.6,P
1607770396.0,286047000.6,N
1607770415.8,286047001.2,N
1607770435.6,286047002.8,Y
1607770455.5,286046999.1,P
1607770475.3,286046998.6,N
1607770495.2,286046998.8,N
1607770515.9,286046999.2,N
1607770535.7,286046997.6,N
1607770555.6,286046997.8,N
1607770575.4,286046995.3,Y
1607770595.3,286046996.8,P
1607770615.1,286046996.2,P
1607770616.0,286046996.2,P
1607770635.8,286046996.1,Y
1607770655.7,286046997.4,P
1607770675.5,286046997.1,P
1607770695.3,286046999.5,P
1607770715.2,286046999.1,N
1607770735.0,286046997.5,N
1607770735.9,286046997.5,N
1607770755.8,286046997.4,N
1607770775.6,286046997.6,N
1607770795.4,286046995.4,Y
